[[{"header":{"parameterUnit":"m.s-1","parameterCategory":1,"la1":30.2991,"la2":30.254,"lo1":-89.0895,"lo2":-89.0444,"dy":0.0017,"dx":0.0017,"nx":28,"ny":28,"refTime":"2024-03-21T21:00:00:Z","depth":0,"parameterNumber":2,"parameterNumberName":"U-component_of_WINDS"},"data":[0,0,0,0,0,0,0,0,0,0,0,0,0,0,0,0,0,0,0,0,0,0,0,0,0,0,0,0,0,0,0,0,0,0,0,0,0,0,0,0,0,0,0,0,0,0,0,0,0,0,0,0,0,0,0,0,0,0,-5.2657,-5.2658,0,-5.271,-5.2711,-5.2712,-5.2577,-5.2573,-5.2568,-5.2564,-5.2621,-5.2627,-5.2632,0,0,0,0,0,0,0,0,0,0,0,0,0,-5.244,-5.2445,-5.2657,-5.2658,-5.2658,-5.271,-5.2711,-5.2712,-5.2578,-5.2572,-5.2567,-5.2563,-5.262,-5.2626,-5.2633,0,0,0,0,0,0,0,0,0,0,0,0,0,-5.2518,-5.2446,-5.2657,-5.2598,-5.2593,-5.271,-5.2711,-5.2712,-5.2579,-5.2572,-5.2566,-5.256,-5.2617,-5.2625,-5.2634,-5.2812,0,0,-5.2659,-5.2662,0,0,0,0,0,0,0,0,-5.2514,-5.2526,-5.2606,-5.2602,-5.2597,-5.263,-5.2655,-5.2745,-5.258,-5.2584,-5.2564,-5.2557,-5.263,-5.2637,-5.2661,-5.2814,-5.2817,-5.2659,-5.2664,-5.2668,-5.267,0,0,0,0,0,0,0,-5.2509,-5.2523,-5.2678,-5.2607,-5.2602,-5.2569,-5.2573,-5.2672,-5.2642,-5.2583,-5.2574,-5.2582,-5.2626,-5.2653,-5.2661,-5.2817,-5.2659,-5.2666,-5.2671,-5.2675,-5.3119,-5.3126,0,0,0,0,0,0,-5.2511,-5.252,-5.2676,-5.268,-5.2539,-5.2578,-5.2582,-5.2626,-5.2641,-5.2637,-5.2587,-5.2575,-5.2642,-5.2651,-5.2662,-5.2871,-5.2668,-5.2675,-5.268,-5.3112,-5.3121,-5.3128,0,0,0,0,0,0,-5.2506,-5.2526,-5.2674,-5.2597,-5.2613,-5.2588,-5.2639,-5.2631,-5.2657,-5.2643,-5.2638,-5.262,-5.2637,-5.2651,-5.2775,-5.2871,-5.2679,-5.2687,-5.3104,-5.3115,-5.3125,-5.3291,0,0,0,0,0,0,-5.2501,-5.2525,-5.2592,-5.26,-5.2618,-5.2786,-5.2644,-5.2636,-5.2671,-5.2656,-5.2673,-5.2669,-5.2633,-5.2764,-5.2783,-5.2879,-5.2693,-5.3096,-5.3109,-5.3121,-5.3277,-5.3306,-5.333,0,0,0,0,0,-5.2493,-5.2637,-5.2596,-5.2616,-5.2701,-5.2792,-5.2802,-5.2758,-5.268,-5.2747,-5.2738,-5.2669,-5.2858,-5.2778,-5.2799,-5.2898,-5.3089,-5.3105,-5.312,-5.3265,-5.33,-5.333,0,0,0,0,0,0,-5.2643,-5.2637,-5.2592,-5.2742,-5.2769,-5.2769,-5.2852,-5.2797,-5.2846,-5.283,-5.2773,-5.2778,-5.2913,-5.2918,-5.2829,-5.3071,-5.296,-5.2981,-5.3063,-5.3096,-5.3123,-5.3119,-5.27,0,0,0,0,0,-5.2693,-5.2767,-5.2758,-5.2892,-5.2907,-5.2878,-5.2916,-5.2879,-5.2904,-5.2915,-5.2915,-5.2943,-5.3008,-5.3052,-5.3112,-5.3277,-5.3278,-5.3356,-5.3383,-5.3405,-5.3423,-5.351,-5.3545,-5.3179,-5.3179,-5.3179,0,0,-5.2798,-5.2804,-5.2854,-5.2922,-5.2938,-5.3016,-5.2888,-5.2976,-5.3033,-5.2928,-5.3045,-5.3047,-5.3074,-5.3219,-5.3283,-5.3228,-5.3524,-5.3425,-5.3442,-5.3449,-5.353,-5.3565,-5.3595,-5.319,-5.3188,-5.3186,0,0,-5.3029,-5.3041,-5.3153,-5.3172,-5.3198,-5.3177,-5.3205,-5.3214,-5.321,-5.3327,-5.3249,-5.3317,-5.3431,-5.3453,-5.348,-5.3719,-5.3657,-5.374,-5.3881,-5.3966,-5.3995,-5.402,-5.4106,-5.4137,-5.3759,-5.3759,-5.376,0,-5.3156,-5.327,-5.3219,-5.3312,-5.3344,-5.3252,-5.3365,-5.3386,-5.343,-5.3455,-5.3392,-5.3532,-5.3544,-5.3693,-5.3752,-5.3776,-5.3806,-5.3738,-5.3995,-5.402,-5.4043,-5.4123,-5.4156,-5.3769,-5.3768,-5.3767,-5.3766,0,-5.3425,-5.3505,-5.3593,-5.3637,-5.3679,-5.3782,-5.3747,-5.3796,-5.3756,-5.3742,-5.3862,-5.3873,-5.3933,-5.3966,-5.3928,-5.411,-5.4074,-5.4005,-5.3892,-5.4088,-5.4163,-5.4194,-5.3783,-5.378,-5.3777,-5.3774,0,0,-5.3751,-5.3765,-5.3799,-5.3817,-5.3839,-5.39,-5.3999,-5.4057,-5.41,-5.4134,-5.4215,-5.4314,-5.4249,-5.4279,-5.4243,-5.4319,-5.4507,-5.4239,-5.4238,-5.4288,-5.4708,-5.4761,-5.4797,-5.4466,-5.4472,-5.4477,-5.4706,0,-5.3978,-5.4147,-5.4104,-5.4273,-5.4346,-5.426,-5.4346,-5.4369,-5.4359,-5.442,-5.4409,-5.448,-5.4389,-5.4407,-5.4478,-5.4469,-5.4591,-5.4452,-5.4542,-5.4546,-5.4537,-5.4836,-5.4892,-5.5108,-5.4735,-5.474,-5.4743,0,-5.4266,-5.431,-5.4486,-5.4495,-5.4524,-5.4603,-5.4652,-5.4711,-5.4736,-5.4723,-5.4757,-5.4706,-5.4804,-5.4691,-5.4826,-5.4733,-5.4767,-5.4768,-5.4776,-5.4782,-5.4656,-5.485,-5.5175,-5.5208,-5.4789,-5.4785,-5.4782,0,-5.4486,-5.4589,-5.4707,-5.4726,-5.474,-5.4797,-5.4806,-5.4824,-5.4861,-5.4905,-5.4929,-5.4984,-5.5014,-5.5058,-5.5023,-5.4944,-5.5163,-5.5048,-5.5156,-5.5157,-5.5205,-5.5203,-5.554,-5.5229,-5.5229,-5.5228,-5.5227,0,-5.4744,-5.4855,-5.4806,-5.4879,-5.5001,-5.495,-5.5072,-5.5071,-5.5088,-5.5159,-5.5088,-5.5157,-5.5106,-5.5171,-5.5144,-5.526,-5.5274,-5.5267,-5.5259,-5.5273,-5.5274,-5.5294,-5.5278,-5.5237,-5.5235,-5.5233,-5.5232,0,-5.501,-5.4982,-5.5105,-5.5108,-5.5111,-5.5201,-5.5203,-5.5271,-5.5256,-5.5347,-5.5366,-5.5343,-5.5415,-5.5384,-5.5461,-5.5443,-5.5591,-5.5563,-5.5582,-5.5575,-5.5685,-5.5675,-5.6047,-5.6093,-5.5753,-5.5756,-5.5759,0,-5.5176,-5.5259,-5.5271,-5.5313,-5.5326,-5.5396,-5.5433,-5.5387,-5.543,-5.5464,-5.5527,-5.5593,-5.5643,-5.5763,-5.5753,-5.5812,-5.5784,-5.591,-5.5792,-5.5804,-5.5785,-5.578,-5.5788,-5.5934,-5.5938,-5.5941,-5.5944,0,-5.5474,-5.5456,-5.5512,-5.5565,-5.5612,-5.5651,-5.5684,-5.5723,-5.5678,-5.573,-5.5802,-5.5841,-5.5919,-5.5985,-5.6037,-5.6046,-5.5988,-5.5981,-5.6009,-5.6024,-5.6032,-5.6029,-5.5646,-5.5973,-5.597,-5.5968,-5.5966,-5.5965,-5.5694,-5.5763,-5.5783,-5.5848,-5.5868,-5.5901,-5.5964,-5.5957,-5.6017,-5.6076,-5.6045,-5.613,-5.6152,-5.6215,-5.6232,-5.6298,-5.6248,-5.6289,-5.6299,-5.631,-5.6324,-5.6023,-5.6307,-5.6306,-5.6306,-5.6305,-5.6304,0,-5.5987,-5.5995,-5.6056,-5.6105,-5.6157,-5.6097,-5.6131,-5.6178,-5.6253,-5.6278,-5.6329,-5.6413,-5.6477,-5.6472,-5.6531,-5.6585,-5.656,-5.6602,-5.6597,-5.66,-5.6365,-5.6335,-5.6621,-5.6621,-5.6621,-5.6621,-5.6621,-5.6621,-5.6146,-5.626,-5.6245,-5.6369,-5.6376,-5.6458,-5.6482,-5.6512,-5.6532,-5.6628,-5.668,-5.6677,-5.6691,-5.675,-5.6806,-5.6803,-5.6828,-5.688,-5.6868,-5.6648,-5.6617,-5.6587,-5.6558,-5.6886,-5.6887,-5.7097,-5.7099,-5.71]},{"header":{"parameterUnit":"m.s-1","parameterCategory":1,"la1":30.2991,"la2":30.254,"lo1":-89.0895,"lo2":-89.0444,"dy":0.0017,"dx":0.0017,"nx":28,"ny":28,"refTime":"2024-03-21T21:00:00:Z","depth":0,"parameterNumber":3,"parameterNumberName":"V-component_of_WINDS"},"data":[0,0,0,0,0,0,0,0,0,0,0,0,0,0,0,0,0,0,0,0,0,0,0,0,0,0,0,0,0,0,0,0,0,0,0,0,0,0,0,0,0,0,0,0,0,0,0,0,0,0,0,0,0,0,0,0,0,0,-1.7121,-1.7121,0,-1.7127,-1.7127,-1.7127,-1.7156,-1.7157,-1.7158,-1.7158,-1.7163,-1.7162,-1.7162,0,0,0,0,0,0,0,0,0,0,0,0,0,-1.7132,-1.7132,-1.7121,-1.7121,-1.7121,-1.7127,-1.7127,-1.7127,-1.7156,-1.7157,-1.7158,-1.7159,-1.7163,-1.7162,-1.7162,0,0,0,0,0,0,0,0,0,0,0,0,0,-1.7132,-1.7132,-1.7121,-1.7136,-1.7138,-1.7127,-1.7127,-1.7127,-1.7156,-1.7157,-1.7158,-1.7159,-1.7163,-1.7162,-1.7161,-1.7136,0,0,-1.7159,-1.7159,0,0,0,0,0,0,0,0,-1.7132,-1.7131,-1.7134,-1.7135,-1.7137,-1.7142,-1.7133,-1.713,-1.7156,-1.7149,-1.7158,-1.7159,-1.7155,-1.7155,-1.7154,-1.7136,-1.7136,-1.7159,-1.7158,-1.7158,-1.7158,0,0,0,0,0,0,0,-1.7132,-1.7131,-1.7123,-1.7134,-1.7136,-1.7142,-1.7143,-1.7132,-1.7146,-1.715,-1.7152,-1.7152,-1.7156,-1.7154,-1.7154,-1.7136,-1.7159,-1.7158,-1.7158,-1.7158,-1.7096,-1.7095,0,0,0,0,0,0,-1.713,-1.7131,-1.7123,-1.7124,-1.7137,-1.7141,-1.7142,-1.7139,-1.7146,-1.7148,-1.7151,-1.7153,-1.7155,-1.7155,-1.7154,-1.7123,-1.7158,-1.7157,-1.7157,-1.7097,-1.7096,-1.7095,0,0,0,0,0,0,-1.713,-1.7129,-1.7123,-1.7128,-1.7128,-1.714,-1.7136,-1.7139,-1.7137,-1.7147,-1.715,-1.7147,-1.7156,-1.7155,-1.714,-1.7123,-1.7157,-1.7156,-1.7099,-1.7097,-1.7095,-1.7061,0,0,0,0,0,0,-1.713,-1.7129,-1.712,-1.7127,-1.7127,-1.7109,-1.7135,-1.7138,-1.7136,-1.7139,-1.7144,-1.7146,-1.7157,-1.7141,-1.7139,-1.7123,-1.7156,-1.71,-1.7098,-1.7096,-1.7064,-1.7058,-1.7054,0,0,0,0,0,-1.713,-1.711,-1.7119,-1.7118,-1.7116,-1.7108,-1.7108,-1.7121,-1.7135,-1.7125,-1.7131,-1.7146,-1.7126,-1.7139,-1.7137,-1.7121,-1.7101,-1.7098,-1.7096,-1.7066,-1.7059,-1.7054,0,0,0,0,0,0,-1.71,-1.7111,-1.7122,-1.7103,-1.7105,-1.7113,-1.7102,-1.7114,-1.7111,-1.7114,-1.713,-1.713,-1.7112,-1.7115,-1.713,-1.7095,-1.7116,-1.7113,-1.7094,-1.7088,-1.7083,-1.7081,-1.7155,0,0,0,0,0,-1.7091,-1.7084,-1.7094,-1.7077,-1.7077,-1.7089,-1.7086,-1.7096,-1.7098,-1.7098,-1.7104,-1.7104,-1.7098,-1.7093,-1.7088,-1.7065,-1.7065,-1.7052,-1.7048,-1.7044,-1.704,-1.7026,-1.7019,-1.7086,-1.7086,-1.7086,0,0,-1.7072,-1.7078,-1.7072,-1.7071,-1.7073,-1.7064,-1.7089,-1.708,-1.7073,-1.7097,-1.7082,-1.7086,-1.7087,-1.7067,-1.7059,-1.7069,-1.7022,-1.704,-1.7037,-1.7035,-1.7022,-1.7016,-1.701,-1.7084,-1.7085,-1.7085,0,0,-1.7033,-1.7038,-1.7023,-1.7025,-1.7028,-1.7036,-1.7032,-1.7039,-1.7042,-1.7028,-1.7045,-1.7037,-1.7026,-1.7026,-1.7025,-1.6985,-1.6997,-1.6983,-1.6956,-1.6942,-1.6937,-1.6932,-1.6916,-1.691,-1.698,-1.698,-1.698,0,-1.701,-1.6998,-1.7014,-1.7002,-1.7,-1.7022,-1.7006,-1.7007,-1.7008,-1.7005,-1.7017,-1.7003,-1.7006,-1.6985,-1.6975,-1.6974,-1.6969,-1.6981,-1.6937,-1.6932,-1.6928,-1.6912,-1.6906,-1.6978,-1.6978,-1.6978,-1.6978,0,-1.6967,-1.6959,-1.6946,-1.6947,-1.6944,-1.693,-1.6942,-1.6937,-1.6947,-1.6954,-1.6938,-1.6942,-1.6937,-1.6934,-1.6943,-1.6913,-1.6919,-1.6934,-1.6955,-1.6919,-1.6905,-1.6899,-1.6975,-1.6976,-1.6976,-1.6977,0,0,-1.6908,-1.6917,-1.6912,-1.6912,-1.6916,-1.691,-1.6897,-1.6892,-1.6886,-1.6887,-1.6875,-1.6865,-1.6878,-1.6876,-1.6886,-1.6874,-1.6839,-1.689,-1.689,-1.6878,-1.6804,-1.6791,-1.6784,-1.6848,-1.6847,-1.6847,-1.6803,0,-1.6869,-1.6848,-1.6861,-1.6837,-1.6828,-1.6848,-1.6837,-1.6837,-1.6843,-1.6836,-1.6842,-1.6834,-1.6853,-1.6851,-1.6841,-1.6846,-1.6824,-1.6849,-1.6835,-1.6835,-1.6832,-1.6777,-1.6763,-1.6722,-1.6797,-1.6796,-1.6796,0,-1.6821,-1.6818,-1.6793,-1.6798,-1.6795,-1.6784,-1.678,-1.6774,-1.6775,-1.678,-1.6777,-1.679,-1.6776,-1.6798,-1.6778,-1.6795,-1.679,-1.6792,-1.679,-1.6788,-1.6811,-1.677,-1.6709,-1.6701,-1.6787,-1.6788,-1.6789,0,-1.6777,-1.6768,-1.6751,-1.675,-1.6756,-1.6748,-1.675,-1.6752,-1.6748,-1.6745,-1.6742,-1.6737,-1.6734,-1.6729,-1.6739,-1.6755,-1.6717,-1.6741,-1.6719,-1.6718,-1.6708,-1.6708,-1.6643,-1.6709,-1.6709,-1.6709,-1.6709,0,-1.673,-1.6713,-1.6731,-1.672,-1.6701,-1.6717,-1.6698,-1.6702,-1.6703,-1.6693,-1.6711,-1.6701,-1.6716,-1.6707,-1.6716,-1.6696,-1.6695,-1.6697,-1.6699,-1.6694,-1.6693,-1.6689,-1.6692,-1.6708,-1.6708,-1.6708,-1.6709,0,-1.6677,-1.6689,-1.6671,-1.6679,-1.668,-1.6665,-1.6671,-1.6661,-1.6668,-1.6654,-1.6652,-1.6662,-1.6653,-1.6663,-1.6654,-1.666,-1.6633,-1.664,-1.6632,-1.6633,-1.661,-1.6611,-1.6538,-1.6528,-1.6603,-1.6602,-1.6602,0,-1.6646,-1.6633,-1.6639,-1.6633,-1.6634,-1.6625,-1.6621,-1.6636,-1.6631,-1.663,-1.662,-1.6611,-1.6605,-1.6588,-1.6594,-1.6587,-1.6593,-1.6568,-1.6592,-1.6586,-1.6589,-1.6588,-1.6586,-1.6562,-1.6561,-1.656,-1.656,0,-1.6587,-1.6593,-1.6587,-1.6582,-1.6577,-1.6574,-1.6572,-1.6566,-1.6581,-1.6574,-1.6564,-1.656,-1.655,-1.6541,-1.6535,-1.6536,-1.6549,-1.6552,-1.6546,-1.654,-1.6534,-1.6534,-1.6616,-1.6553,-1.6554,-1.6554,-1.6555,-1.6555,-1.6542,-1.6531,-1.6533,-1.6525,-1.6525,-1.6523,-1.6513,-1.6519,-1.6511,-1.6504,-1.6514,-1.6501,-1.6501,-1.6495,-1.6494,-1.6483,-1.6494,-1.6486,-1.6483,-1.648,-1.6476,-1.6538,-1.6483,-1.6483,-1.6483,-1.6483,-1.6483,0,-1.6482,-1.6485,-1.6477,-1.6474,-1.6467,-1.6482,-1.648,-1.6473,-1.6462,-1.6461,-1.6455,-1.6442,-1.6433,-1.6439,-1.643,-1.642,-1.6426,-1.6418,-1.6417,-1.6416,-1.6468,-1.6473,-1.6413,-1.6413,-1.6413,-1.6413,-1.6413,-1.6413,-1.645,-1.6431,-1.6438,-1.6419,-1.6421,-1.6409,-1.6406,-1.6404,-1.6403,-1.6389,-1.6381,-1.6385,-1.6386,-1.6378,-1.637,-1.6372,-1.6367,-1.6355,-1.6359,-1.6406,-1.6413,-1.642,-1.6424,-1.6355,-1.6355,-1.6307,-1.6307,-1.6307]}]]